Clarion, IA

12:10 AM CST on November 12, 2019 (GMT -0600)
Clarion Municipal

Weather History for KCAV - October, 2019

Change the Weather History Date:

Monday, October 21, 2019

  Actual Average Record
Temperature  
Mean Temperature 48 °F -  
Max Temperature 55 °F 60 °F 80 °F (1978)
Min Temperature 42 °F 35 °F 19 °F (2011)
Degree Days  
Heating Degree Days 16    
Moisture  
Dew Point 48 °F    
Average Humidity 94    
Maximum Humidity 100    
Minimum Humidity 82    
Precipitation  
Precipitation 1.13 in - - ()
Sea Level Pressure  
Sea Level Pressure 29.34 in    
Wind  
Wind Speed 16 mph (SSW)    
Max Wind Speed 31 mph    
Max Gust Speed 43 mph    
Visibility 8 miles    
Events      
Averages and records for this station are not official NWS values.
T = Trace of Precipitation, MM = Missing Value Source: NWS Daily Summary

Daily Weather History Graph

Daily Weather History Graph

Search for Another Location

Airport or City:

Astronomy

Oct. 21, 2019 Rise Set
Actual Time 7:35 AM CDT 6:23 PM CDT
Civil Twilight 7:06 AM CDT 6:52 PM CDT
Nautical Twilight 6:33 AM CDT 7:25 PM CDT
Astronomical Twilight 6:00 AM CDT 7:57 PM CDT
Moon No Moon Rise 2:58 PM CDT (10/21)
Length of Visible Light 11h 45m
Length of Day
10h 48m
Waning Gibbous, 48% of the Moon is Illuminated
Oct 21
Waning Gibbous
Oct 27
New
Nov 4
First Quarter
Nov 12
Full
Nov 19
Last Quarter

Hourly Weather History & Observations

Time (CDT) Temp. Windchill Dew Point Humidity Pressure Visibility Wind Dir Wind Speed Gust Speed Precip Events Conditions
12:15 AM 53.6 °F - 48.2 °F 82% 29.65 in 9.0 mi SSE 9.2 mph 20.7 mph N/A   Overcast
12:35 AM 51.8 °F - 48.2 °F 88% 29.62 in 5.0 mi ESE 17.3 mph - N/A   Mostly Cloudy
12:55 AM 51.8 °F - 48.2 °F 88% 29.62 in 7.0 mi ESE 12.7 mph 21.9 mph 0.08 in   Overcast
1:15 AM 51.8 °F - 48.2 °F 88% 29.62 in 8.0 mi ESE 15.0 mph - N/A   Overcast
1:35 AM 50.0 °F - 48.2 °F 94% 29.61 in 8.0 mi ESE 15.0 mph - N/A   Overcast
1:55 AM 50.0 °F - 48.2 °F 94% 29.59 in 5.0 mi ESE 13.8 mph - 0.05 in   Mostly Cloudy
2:15 AM 50.0 °F - 50.0 °F 100% 29.59 in 4.0 mi SE 13.8 mph - N/A   Overcast
2:35 AM 50.0 °F - 50.0 °F 100% 29.58 in 4.0 mi ESE 15.0 mph - N/A   Overcast
2:55 AM 50.0 °F - 50.0 °F 100% 29.53 in 3.0 mi ESE 21.9 mph 27.6 mph 0.23 in   Mostly Cloudy
3:15 AM 51.8 °F - 50.0 °F 94% 29.50 in 4.0 mi ESE 20.7 mph 26.5 mph N/A   Overcast
3:35 AM 51.8 °F - 51.8 °F 100% 29.45 in 5.0 mi East 24.2 mph 31.1 mph N/A   Mostly Cloudy
3:55 AM 51.8 °F - 50.0 °F 94% 29.39 in 5.0 mi East 26.5 mph 36.8 mph 0.06 in   Overcast
4:15 AM 50.0 °F - 50.0 °F 100% 29.41 in 8.0 mi East 21.9 mph 36.8 mph N/A   Mostly Cloudy
4:35 AM 50.0 °F - 50.0 °F 100% 29.40 in 10.0 mi East 20.7 mph 27.6 mph N/A   Overcast
4:55 AM 50.0 °F - 50.0 °F 100% 29.40 in 10.0 mi East 16.1 mph 27.6 mph 0.01 in   Overcast
5:15 AM 50.0 °F - 50.0 °F 100% 29.37 in 10.0 mi East 15.0 mph 24.2 mph N/A   Overcast
5:35 AM 51.8 °F - 50.0 °F 94% 29.36 in 10.0 mi East 12.7 mph - N/A   Overcast
5:55 AM 51.8 °F - 51.8 °F 100% 29.34 in - ESE 10.4 mph 18.4 mph N/A   Overcast
6:15 AM 51.8 °F - 51.8 °F 100% 29.34 in 5.0 mi SE 12.7 mph 23.0 mph N/A   Overcast
6:35 AM 51.8 °F - 51.8 °F 100% 29.33 in 2.5 mi ESE 10.4 mph 17.3 mph N/A   Overcast
6:55 AM 51.8 °F - 51.8 °F 100% 29.32 in 2.0 mi SW 6.9 mph - 0.23 in   Overcast
7:15 AM 51.8 °F - 51.8 °F 100% 29.30 in 2.5 mi West 8.1 mph 21.9 mph N/A   Overcast
7:35 AM 51.8 °F - 50.0 °F 94% 29.30 in 5.0 mi South 8.1 mph - N/A   Mostly Cloudy
7:55 AM 51.8 °F - 51.8 °F 100% 29.29 in 3.0 mi South 5.8 mph - 0.28 in   Overcast
8:15 AM 51.8 °F - 51.8 °F 100% 29.30 in 5.0 mi South 6.9 mph - N/A   Overcast
8:35 AM 51.8 °F - 51.8 °F 100% 29.29 in 8.0 mi South 8.1 mph - N/A   Overcast
8:55 AM 51.8 °F - 51.8 °F 100% 29.30 in 10.0 mi SSW 9.2 mph - 0.05 in   Overcast
9:15 AM 51.8 °F - 51.8 °F 100% 29.29 in 9.0 mi SW 11.5 mph - N/A   Overcast
9:55 AM 51.8 °F - 51.8 °F 100% 29.26 in 10.0 mi WSW 5.8 mph - N/A   Clear
10:15 AM 55.4 °F - 53.6 °F 94% 29.25 in 10.0 mi WSW 8.1 mph - N/A   Partly Cloudy
10:35 AM 55.4 °F - 51.8 °F 88% 29.25 in 10.0 mi WSW 12.7 mph - N/A   Scattered Clouds
10:55 AM 55.4 °F - 53.6 °F 94% 29.25 in 10.0 mi SW 16.1 mph - N/A   Mostly Cloudy
11:15 AM 55.4 °F - 51.8 °F 88% 29.24 in 10.0 mi SW 15.0 mph - N/A   Overcast
11:35 AM 53.6 °F - 51.8 °F 94% 29.25 in 10.0 mi SW 13.8 mph 20.7 mph N/A   Overcast
11:55 AM 53.6 °F - 50.0 °F 88% 29.25 in 10.0 mi SSW 19.6 mph 25.3 mph N/A   Overcast
12:35 PM 50.0 °F - 48.2 °F 94% 29.24 in 10.0 mi SW 21.9 mph - N/A   Overcast
12:55 PM 50.0 °F - 48.2 °F 94% 29.24 in 10.0 mi SW 21.9 mph - N/A   Overcast
1:15 PM 50.0 °F - 46.4 °F 87% 29.25 in 10.0 mi SW 20.7 mph - N/A   Overcast
1:35 PM 50.0 °F - 46.4 °F 87% 29.25 in 10.0 mi SW 21.9 mph - N/A   Overcast
1:55 PM 51.8 °F - 48.2 °F 88% 29.25 in 10.0 mi SW 21.9 mph 28.8 mph N/A   Overcast
2:15 PM 50.0 °F - 48.2 °F 94% 29.25 in 7.0 mi SW 20.7 mph 27.6 mph N/A   Overcast
2:35 PM 50.0 °F - 48.2 °F 94% 29.25 in 10.0 mi SW 16.1 mph 24.2 mph N/A   Overcast
2:55 PM 51.8 °F - 48.2 °F 88% 29.25 in 10.0 mi SSW 18.4 mph 26.5 mph N/A   Overcast
3:15 PM 51.8 °F - 48.2 °F 88% 29.25 in 10.0 mi SSW 19.6 mph - N/A   Mostly Cloudy
3:35 PM 51.8 °F - 46.4 °F 82% 29.26 in 10.0 mi SW 16.1 mph 27.6 mph N/A   Mostly Cloudy
3:55 PM 51.8 °F - 46.4 °F 82% 29.26 in 10.0 mi SW 19.6 mph - N/A   Overcast
4:15 PM 51.8 °F - 46.4 °F 82% 29.26 in 10.0 mi SW 23.0 mph 29.9 mph N/A   Mostly Cloudy
4:35 PM 50.0 °F - 44.6 °F 82% 29.26 in 10.0 mi SW 26.5 mph 33.4 mph N/A   Overcast
4:55 PM 48.2 °F - 44.6 °F 87% 29.27 in 10.0 mi SW 24.2 mph 31.1 mph N/A   Mostly Cloudy
5:15 PM 46.4 °F 39.8 °F 44.6 °F 93% 29.27 in 3.0 mi SW 16.1 mph 25.3 mph N/A   Overcast
5:35 PM 46.4 °F 39.8 °F 46.4 °F 100% 29.27 in 8.0 mi SW 16.1 mph 21.9 mph N/A   Overcast
5:55 PM 46.4 °F 38.1 °F 44.6 °F 93% 29.29 in 3.0 mi West 24.2 mph 36.8 mph 0.04 in   Mostly Cloudy
6:15 PM 44.6 °F 36.1 °F 42.8 °F 93% 29.30 in 9.0 mi West 21.9 mph 27.6 mph N/A   Mostly Cloudy
6:35 PM 44.6 °F 35.1 °F 42.8 °F 93% 29.31 in 8.0 mi West 27.6 mph 34.5 mph N/A   Overcast
6:55 PM 44.6 °F 35.7 °F 41.0 °F 87% 29.31 in 10.0 mi West 24.2 mph - N/A   Overcast
7:15 PM 44.6 °F 35.9 °F 42.8 °F 93% 29.31 in 10.0 mi West 23.0 mph 32.2 mph N/A   Overcast
7:35 PM 44.6 °F 36.1 °F 42.8 °F 93% 29.32 in 10.0 mi West 21.9 mph 28.8 mph N/A   Overcast
7:55 PM 44.6 °F 35.3 °F 42.8 °F 93% 29.32 in 10.0 mi West 26.5 mph 36.8 mph 0.01 in   Overcast
8:15 PM 42.8 °F 32.3 °F 41.0 °F 93% 29.32 in 10.0 mi West 29.9 mph - N/A   Overcast
8:35 PM 42.8 °F 33.3 °F 41.0 °F 93% 29.33 in 10.0 mi West 24.2 mph 31.1 mph N/A   Mostly Cloudy
8:55 PM 42.8 °F 33.1 °F 41.0 °F 93% 29.32 in 6.0 mi West 25.3 mph 32.2 mph N/A   Overcast
9:15 PM 42.8 °F 33.1 °F 42.8 °F 100% 29.32 in 6.0 mi West 25.3 mph 32.2 mph N/A   Overcast
9:35 PM 42.8 °F 33.5 °F 42.8 °F 100% 29.32 in 4.0 mi West 23.0 mph 31.1 mph N/A   Overcast
9:55 PM 44.6 °F 35.5 °F 42.8 °F 93% 29.33 in 4.0 mi West 25.3 mph 38.0 mph 0.03 in   Overcast
10:15 PM 44.6 °F 35.7 °F 42.8 °F 93% 29.34 in 4.0 mi West 24.2 mph 35.7 mph N/A   Mostly Cloudy
10:35 PM 44.6 °F 35.5 °F 42.8 °F 93% 29.34 in 5.0 mi WNW 25.3 mph 42.6 mph N/A   Overcast
10:55 PM 44.6 °F 34.9 °F 41.0 °F 87% 29.35 in 8.0 mi WNW 28.8 mph 41.4 mph 0.03 in   Overcast
11:15 PM 44.6 °F 36.4 °F 42.8 °F 93% 29.35 in 5.0 mi West 20.7 mph 34.5 mph N/A   Overcast
11:55 PM 44.6 °F 34.6 °F 42.8 °F 93% 29.36 in 5.0 mi WNW 31.1 mph 41.4 mph 0.03 in   Overcast